Regional Weather Roundup
Issued by NWS

Home | Current Version | Previous Version | Text Only | Print | Product List | Glossary On
Versions: 1 2 3 4 5 6 7 8 9 10 11 12 13 14 15 16 17 18 19 20 21 22 23 24 25 26 27 28 29 30 31 32 33 34 35 36 37 38 39 40 41 42 43 44 45 46 47 48 49 50
311
ASUS43 KMKX 301700
RWRWI

WISCONSIN REGIONAL WEATHER ROUNDUP
NATIONAL WEATHER SERVICE MILWAUKEE/SULLIVAN WI
1200 PM CDT SAT JUL 30 2016

NOTE: "FAIR" INDICATES FEW OR NO CLOUDS BELOW 12,000 FEET WITH NO
SIGNIFICANT WEATHER AND/OR OBSTRUCTIONS TO VISIBILITY.

WIZ001-002-006>008-014>016-023>028-301800-
NORTHWEST WISCONSIN

CITY           SKY/WX    TMP DP  RH WIND       PRES   REMARKS
SUPERIOR ARPT  SUNNY     70  60  71 E6        30.07S
ASHLAND        MOSUNNY   78  59  51 S7        30.06F
HAYWARD        SUNNY     75  54  47 SE7       30.07F
SIREN          NOT AVBL
CUMBERLAND     SUNNY     72  54  53 SE5       30.08S
RICE LAKE      SUNNY     74  54  49 E5        30.08S
CHETEK         SUNNY     74  56  52 CALM      30.07S
LADYSMITH      SUNNY     75  55  50 E7        30.09S
EAU CLAIRE     NOT AVBL
MENOMONIE      MOSUNNY   80  57  45 E5        30.05S HX  80
NEW RICHMOND   CLOUDY    74  61  63 SE5       30.06R
OSCEOLA        PTSUNNY   75  62  64 E7        30.07S
$$

WIZ003>005-009-010-017-018-301800-
NORTH CENTRAL WISCONSIN

CITY           SKY/WX    TMP DP  RH WIND       PRES   REMARKS
MANITOWISH WTR MOSUNNY   74  56  54 SE6       30.10S
ARBOR VITAE    MOSUNNY   77  56  48 E8        30.10S
WOODRUFF       MOSUNNY   77  56  48 E8        30.10S
RHINELANDER    SUNNY     75  54  47 E12       30.10S
EAGLE RIVER    SUNNY     74  51  44 E14       30.10S
LAND O LAKES   PTSUNNY   75  51  42 E7        30.11F
PHILLIPS       SUNNY     74  56  53 E7        30.08F
TOMAHAWK       MOSUNNY   73  57  57 E5        30.09S
MEDFORD        MOSUNNY   73  57  58 E5        30.08S
MERRILL        PTSUNNY   74  61  64 SE8       30.08S
$$

WIZ029-030-035-036-043>047-301800-
CENTRAL WISCONSIN

CITY           SKY/WX    TMP DP  RH WIND       PRES   REMARKS
WAUSAU         SUNNY     75  59  57 E10       30.06S
MOSINEE        MOSUNNY   73  63  68 E7        30.08S
MARSHFIELD     MOSUNNY   77  61  57 SE8       30.06S
STEVENS POINT  CLOUDY    71  59  64 E7        30.07S
WAUPACA        SUNNY     78  60  54 NE7       30.06S
WAUTOMA        MOSUNNY   74  62  66 NE10      30.06
WISC RAPIDS    MOSUNNY   78  60  53 E8        30.07S
CAMP DOUGLAS   NOT AVBL
$$

WIZ011>013-019>022-031-037>040-048>050-301800-
NORTHEAST WISCONSIN

CITY           SKY/WX    TMP DP  RH WIND       PRES   REMARKS
ANTIGO         MOSUNNY   71  58  63 E9        30.10S HAZE
SHAWANO        SUNNY     77  57  49 E10       30.08S
OCONTO         SUNNY     73  57  57 NE9       30.08S
STURGEON BAY   SUNNY     74  53  48 E9G17     30.08F
GREEN BAY      SUNNY     75  60  59 E13       30.06S
MANITOWOC      NOT AVBL
APPLETON       PTSUNNY   75  52  43 NE10G16   30.04F
CLINTONVILLE   SUNNY     75  54  46 E8        30.07R
OSHKOSH        SUNNY     75  58  55 E10       30.05R
$$

WIZ032>034-041-042-053>061-301800-
SOUTHWEST WISCONSIN

CITY           SKY/WX    TMP DP  RH WIND       PRES   REMARKS
LA CROSSE      PTSUNNY   77  62  59 SE6       30.03S
SPARTA         MOSUNNY   77  62  59 NE7       30.05S
VIROQUA        PTSUNNY   74  62  64 E9        30.05S
BOSCOBEL       MOSUNNY   78  64  61 VRB5      30.03R HX  80
PRAIRIE DU CHI MOSUNNY   75  65  69 E5        30.02S
PLATTEVILLE    MOSUNNY   76  65  68 E8        30.03R
$$

WIZ056-057-062-063-064-067-068-301800-
SOUTH CENTRAL WISCONSIN

CITY           SKY/WX    TMP DP  RH WIND       PRES   REMARKS
REEDSBURG      MOSUNNY   75  64  68 E5        30.04S
BARABOO/DELLS  MOSUNNY   74  57  56 E9        30.04S
LONE ROCK      NOT AVBL
MINERAL POINT  CLOUDY    77  61  57 E9        30.03S
MADISON        PTSUNNY   76  62  62 NE12      30.03R
MIDDLETON      MOSUNNY   76  60  57 E9        30.04R
WATERTOWN      SUNNY     76  60  59 E9        30.03R
MONROE         MOSUNNY   73  63  68 NE8       30.02S
JANESVILLE     PTSUNNY   79  63  57 NE10      30.00F HX  80
$$

WIZ051-052-058>065-066-070>072-301800-
SOUTHEAST WISCONSIN

CITY           SKY/WX    TMP DP  RH WIND       PRES   REMARKS
MILWAUKEE      PTSUNNY   73  62  68 NE15      30.03R
WAUKESHA       NOT AVBL
MILWAUKEE/TIMM MOSUNNY   72  57  60 NE9G17    30.03F
RACINE         CLOUDY    75  64  68 NE13      30.03S
BURLINGTON     MOSUNNY   76  60  56 E12       30.02R
KENOSHA        PTSUNNY   75  63  66 NE13      30.02R
FOND DU LAC    MOSUNNY   77  59  53 E8        30.04F
SHEBOYGAN      PTSUNNY   73  62  68 NE13      30.05S
WEST BEND      SUNNY     73  59  60 E13       30.04S
JUNEAU         MOSUNNY   73  61  67 E8        30.04F
$$

LSZ147-162-301800-
LAKE SUPERIOR

STATION/POSITION TIME  TEMP    WIND        PRES    WAVE
                       AIR SEA DIR/SP/G            HT/PER
                 (UTC) (F)     (DEG/KT/KT) (MB)    (FT/S)
W MID LAKE BUOY  1550   63 63   80/  4/  6 1018.1S   0
DEVILS ISLAND    1600   65      10/  6/  6 1018.3R
PORT WING        1600   65      30/  2/  3 1018.3
SAXON HARBOR     1600   69      10/  4/  6 1018.3
$$

LMZ867-665-643>646-301800-
LAKE MICHIGAN

STATION/POSITION TIME  TEMP    WIND        PRES    WAVE
                       AIR SEA DIR/SP/G            HT/PER
                 (UTC) (F)     (DEG/KT/KT) (MB)    (FT/S)
CHAMBERS ISLAND  1600   72      60/  9/ 11 1018.6S
S GREEN BAY BUOY 1600   71 71  100/ 12/ 14 1017.9S
N MID LAKE BUOY  1550   69 70   70/  8/ 10 1018.4R   1
NORTHPORT PIER   1600   70     100/  9/ 10 1019.0R
SISTER BAY       1636   75     100/ 11/ 14   N/A
ALGOMA LAKESHORE 1513           70/ 13/ 15   N/A
KEWAUNEE LAKESHO 1600   71      40/  4/  8 1018.0R
SHEBOYGAN LAKESH 1600   67      40/ 11/ 11 1017.7S
PORT WASHINGTON  1600   72      40/  8/ 10 1017.6S
ATWATER BUOY     1600   65 62   10/  8/ 10 1018.3S
MILWAUKEE LAKESH 1610   67      30/ 12/ 13   N/A
S MID LAKE BUOY  1550   68 73   70/  8/ 10 1015.4F   2/ 4
KENOSHA   LAKESH 1600   69      30/ 12/ 14 1015.9R
$$

TC  - TEMPERATURE IN CELSIUS
VSB - VISIBILITY IN STATUTE MILES
WCI - WIND CHILL INDEX
HX  - HEAT INDEX





USA.gov is the U.S. government's official web portal to all federal, state and local government web resources and services.